CZ-6A DEB, 60877

Orbit data source: Space-Track

CZ-6A DEB, 60877 is space debris in LEO originally from a launch on Tue, 06 Aug 2024 UTC launched from the Taiyaun Space Center, China (TSC). Debris objects in space refer to the collection of defunct objects orbiting the Earth. Examples of debris include non-operational satellites, rocket bodies, and fragments generated from explosions, collisions, or faulty payload assembly.

Loading next visibility...
Identifier
60877, 2024-140KG
Orbit
LEO
Country
Flag of CNCN / PRC
Related business
Manufacturer
SAST
Mission
Spacecraft
Bus & Motor
Unknown
Mass
Unknown
Launch date (UTC)
2024-08-06 (2 years ago)
Launch vehicle
Unknown
Launch site
Taiyaun Space Center, China (TSC)
Object type
Payload
Rocket body
Debris
Shape & HBR
Unknown shape, 0.1 m
Radar Cross Section
Medium (>0.1 m² and <1 m²)

Expand to show TLE details & history
Last TLE update: 14 hours ago

TLE from 14 hours ago
0 CZ-6A DEB
1 60877U 24140KG  26171.27264727  .00000214  00000-0  13989-3 0  9993
2 60877  89.0750 283.4762 0176701 289.4908  68.7253 13.91949242 93617
Epoch: 2026-06-20T06:32Z
TLE epoch observation values (Epoch: 2026-06-20T06:32:36.724Z)
Latitude
Longitude
-83.16646°
Altitude
880.008 km
Speed
7.435 km/s
True Right ascension
18h 53m 54s
True Declination
0° 00' 00"
Sunlit
Object was in full shadow at epoch
Visualization orbit readout
Latitude
Unknown
Longitude
Unknown
Altitude
Unknown
Speed
Unknown
Apparent Right ascension
Unknown
Apparent Declination
Unknown
Sunlit
N/A
Visualization observer readout
Local Sidereal Time
07:20:43
Azimuth
Unknown
Elevation
Unknown
Doppler factor
Unknown
Orbital elements
Apogee altitude
1,047.735 km
Perigee altitude
789.86 km
Semi-major axis
7,296.935 km
Eccentricity
0.01767
Inclination
89.075°
RAAN
283.4762°
Arg. of periapsis
289.4908°
True anomaly
70.62704°
Mean anomaly
68.7253°
Eccentric anomaly
69.67468°
Mean motion
3.48203 °/min
Orbital period
103.39 mins
BSTAR
0.00013989
Loading maneuver chart data...
Computing Atmospheric mass density...
Loading historical data...
Loading historical data...
Loading historical data...
Loading historical data...
Loading historical data...
Loading historical data...
Loading historical data...

Documentation

Showing up to 5 results
|